STARLINK-11159 [DTC]

Last updated on Tue Oct 01 2024 00:02:04 GMT+0000 (Coordinated Universal Time)

1 60905U 24154C 24274.22429372 .00018944 00000+0 11936-3 0 9994 2 60905 53.1595 203.1140 0000187 91.8496 268.2546 15.76751376 5965
UTC large
Height (km)
Speed (km/s)
/
Latitude / Longitude
Inclination (degrees)
Orbital Period (minutes)
Azimuth
Elevation
Range (km)
Doppler Factor

Next 0 passes for location: London (51.5072 / 0.1276)

Sorry there are no passes over London.